This demonstration page uses our WeatherBlox Daily Observations layout. Learn more.

Hourly Observations for August 15, 2019

Temp ( °F °C ) Dew Point ( °F °C ) Humidity (%) Winds ( mph kmh ) Pressure ( in mb ) Visibility ( mi km ) Precip ( " mm )
12:15 am 00:15 Clear 59 15 59 15 100 100 NNE 3 6 30.09 1019 10 16.09344 0 0
12:35 am 00:35 Clear 58 14.5 58 14.5 100 100 ENE 3 6 30.09 1019 10 16.09344 0 0
12:55 am 00:55 Clear 58 14.3 58 14.3 100 100 ENE 3 6 30.09 1019 10 16.09344 0 0
1:15 am 01:15 Clear 58 14.4 58 14.4 100 100 Calm 30.09 1019 10 16.09344 0 0
1:35 am 01:35 Clear 58 14.3 58 14.3 100 100 Calm 30.09 1019 10 16.09344 0 0
1:55 am 01:55 Clear 58 14.3 58 14.3 100 100 E 3 6 30.09 1019 10 16.09344 0 0
2:15 am 02:15 Clear 58 14.3 58 14.3 100 100 E 6 9 30.09 1019 10 16.09344 0 0
2:35 am 02:35 Clear 58 14.4 57 14.1 98 98 SE 5 7 30.09 1019 10 16.09344 0 0
2:55 am 02:55 Clear 57 13.8 57 13.7 99 99 SE 3 6 30.09 1019 10 16.09344 0 0
3:15 am 03:15 Clear 58 14.3 58 14.3 100 100 SE 3 6 30.09 1019 10 16.09344 0 0
3:35 am 03:35 Clear 58 14.3 58 14.3 100 100 SE 3 6 30.06 1018 10 16.09344 0 0
3:55 am 03:55 Clear 58 14.3 58 14.2 99 99 SSE 3 6 30.06 1018 10 16.09344 0 0
4:15 am 04:15 Clear 58 14.3 57 14.1 99 99 SE 6 9 30.03 1017 10 16.09344 0 0
4:35 am 04:35 Clear 58 14.5 58 14.3 99 99 Calm 30.06 1018 10 16.09344 0 0
4:55 am 04:55 Clear 58 14.5 58 14.5 100 100 ESE 5 7 30.06 1018 10 16.09344 0 0
5:15 am 05:15 Clear 59 15.1 59 15 99 99 E 3 6 30.06 1018 10 16.09344 0 0
5:35 am 05:35 Clear with Nearby Thunderstorms 59 15.2 59 15 99 99 Calm 30.06 1018 10 16.09344 0 0
5:55 am 05:55 Partly Cloudy 61 16.1 59 15.2 94 94 SSE 14 22 30 1016 10 16.09344 0 0
6:15 am 06:15 Partly Cloudy 61 16.2 60 15.3 94 94 SSE 10 17 30 1016 10 16.09344 0 0
6:35 am 06:35 Clear 61 16.2 60 15.6 96 96 ESE 6 9 30.03 1017 10 16.09344 0 0
6:55 am 06:55 Sunny 61 16.2 61 16 99 99 E 8 13 30.03 1017 10 16.09344 0 0
7:15 am 07:15 Sunny 62 16.6 62 16.5 99 99 ESE 10 17 29.97 1015 10 16.09344 0 0
7:35 am 07:35 Sunny 62 16.9 62 16.6 98 98 ESE 8 13 29.97 1015 10 16.09344 0 0
7:55 am 07:55 Partly Cloudy with Light Rain 62 16.8 62 16.7 99 99 SE 9 15 29.97 1015 10 16.09344 0 0
8:15 am 08:15 Partly Cloudy with Light Rain 63 17 62 16.9 99 99 SE 16 26 29.94 1014 10 16.09344 0 0
8:35 am 08:35 Mostly Cloudy 63 17.4 63 17.3 99 99 SSE 10 17 29.97 1015 10 16.09344 0 0
8:55 am 08:55 Cloudy with Thunderstorms 64 17.8 64 17.5 98 98 NNW 13 20 30.03 1017 10 16.09344 0 0
9:15 am 09:15 Cloudy with Heavy Thunderstorms 63 17.3 62 16.9 98 98 Calm 30.06 1018 4 6.437376 0.15 3.81
9:35 am 09:35 Cloudy with Light Thunderstorms 63 17.3 63 17.2 99 99 NNW 8 13 30.06 1018 5 8.04672 0.37 9.398
9:55 am 09:55 Cloudy with Thunderstorms 62 16.4 62 16.4 100 100 NNE 16 26 30.06 1018 7 11.265408 0.37 9.398
10:15 am 10:15 Cloudy with Nearby Thunderstorms 62 16.5 62 16.5 100 100 ENE 12 19 30.06 1018 10 16.09344 0 0
10:35 am 10:35 Cloudy 63 17 62 16.8 99 99 E 14 22 30 1016 10 16.09344 0 0
10:55 am 10:55 Cloudy 63 17.3 62 16.6 96 96 E 13 20 30 1016 10 16.09344 0 0
11:15 am 11:15 Mostly Cloudy 65 18.5 64 17.5 94 94 E 16 26 29.97 1015 10 16.09344 0 0
11:35 am 11:35 Sunny 67 19.7 65 18.3 92 92 ESE 16 26 29.97 1015 10 16.09344 0 0
11:55 am 11:55 Partly Cloudy with Nearby Thunderstorms 69 20.4 65 18.2 87 87 SE 17 28 29.91 1013 10 16.09344 0 0
12:15 pm 12:15 Partly Cloudy 70 20.9 65 18.1 84 84 ESE 12 19 29.91 1013 10 16.09344 0 0
12:35 pm 12:35 Mostly Cloudy 71 21.8 66 18.7 83 83 SE 13 20 29.91 1013 10 16.09344 0 0
12:55 pm 12:55 Cloudy 73 22.5 66 18.7 79 79 SE 13 20 29.91 1013 10 16.09344 0 0
1:15 pm 13:15 Cloudy 73 23 67 19.3 80 80 SSE 12 19 29.85 1011 10 16.09344 0 0
1:35 pm 13:35 Mostly Cloudy 75 23.7 67 19.6 78 78 SSE 14 22 29.85 1011 10 16.09344 0 0
1:55 pm 13:55 Mostly Cloudy 75 23.9 67 19.5 76 76 S 10 17 29.85 1011 10 16.09344 0 0
2:15 pm 14:15 Mostly Cloudy 76 24.5 67 19.7 75 75 S 10 17 29.85 1011 10 16.09344 0 0
2:35 pm 14:35 Mostly Cloudy 77 24.8 67 19.6 73 73 S 10 17 29.85 1011 10 16.09344 0 0
2:55 pm 14:55 Cloudy 77 25.2 68 19.9 73 73 S 6 9 29.85 1011 10 16.09344 0 0
3:15 pm 15:15 Cloudy 78 25.4 68 20.1 73 73 SSW 7 11 29.85 1011 10 16.09344 0 0
3:35 pm 15:35 Cloudy 77 25 68 20 74 74 SW 3 6 29.85 1011 10 16.09344 0 0
3:55 pm 15:55 Cloudy 78 25.6 67 19.7 70 70 W 6 9 29.85 1011 10 16.09344 0 0
4:15 pm 16:15 Mostly Cloudy 77 25.1 67 19.5 71 71 W 3 6 29.85 1011 10 16.09344 0 0
4:35 pm 16:35 Mostly Cloudy 78 25.8 69 20.3 72 72 Calm 29.85 1011 10 16.09344 0 0
4:55 pm 16:55 Partly Cloudy 79 26 67 19.6 68 68 W 3 6 29.83 1010 10 16.09344 0 0
5:15 pm 17:15 Partly Cloudy 79 25.9 67 19.7 69 69 NW 3 6 29.83 1010 10 16.09344 0 0
5:35 pm 17:35 Sunny 79 26.1 67 19.5 67 67 NW 3 6 29.85 1011 10 16.09344 0 0
5:55 pm 17:55 Partly Cloudy 79 25.9 67 19.4 67 67 N 6 9 29.85 1011 10 16.09344 0 0
6:15 pm 18:15 Partly Cloudy 78 25.7 68 20.1 71 71 NNE 8 13 29.85 1011 10 16.09344 0 0
6:35 pm 18:35 Sunny 78 25.5 67 19.6 70 70 N 6 9 29.85 1011 10 16.09344 0 0
6:55 pm 18:55 Sunny 78 25.4 68 20.1 73 73 NNE 6 9 29.85 1011 10 16.09344 0 0
7:15 pm 19:15 Sunny 75 23.7 68 20.2 81 81 NE 7 11 29.83 1010 10 16.09344 0 0
7:35 pm 19:35 Sunny 74 23.2 69 20.5 85 85 NE 8 13 29.83 1010 10 16.09344 0 0
7:55 pm 19:55 Sunny 73 22.6 69 20.8 90 90 NE 6 9 29.83 1010 10 16.09344 0 0
8:15 pm 20:15 Sunny 72 22 69 20.5 91 91 NE 6 9 29.85 1011 10 16.09344 0 0
8:35 pm 20:35 Sunny 70 21 68 20.2 95 95 ENE 5 7 29.85 1011 10 16.09344 0 0
8:55 pm 20:55 Clear 69 20.6 68 20.2 98 98 Calm 29.85 1011 10 16.09344 0 0
9:15 pm 21:15 Clear 69 20.6 69 20.3 98 98 Calm 29.85 1011 10 16.09344 0 0
9:35 pm 21:35 Clear 67 19.6 67 19.2 98 98 NE 5 7 29.85 1011 10 16.09344 0 0
9:55 pm 21:55 Clear 67 19.4 67 19.2 99 99 ENE 7 11 29.85 1011 10 16.09344 0 0
10:15 pm 22:15 Clear 67 19.5 67 19.5 100 100 ENE 3 6 29.88 1012 10 16.09344 0 0
10:35 pm 22:35 Clear 67 19.4 67 19.2 99 99 Calm 29.88 1012 10 16.09344 0 0
10:55 pm 22:55 Clear 66 19.1 66 19.1 100 100 Calm 29.91 1013 10 16.09344 0 0
11:15 pm 23:15 Clear 65 18.4 65 18.4 100 100 NE 3 6 29.91 1013 7 11.265408 0 0
11:35 pm 23:35 Clear with Mist and Fog 65 18.3 65 18.3 100 100 NE 5 7 29.91 1013 5 8.04672 0 0
11:55 pm 23:55 Clear with Mist and Fog 65 18.6 65 18.6 100 100 Calm 29.91 1013 5 8.04672 0 0

Powered by AerisWeather